Time,TemperatureF,DewpointF,PressureIn,WindDirection,WindDirectionDegrees,WindSpeedMPH,WindSpeedGustMPH,Humidity,HourlyPrecipIn,Conditions,Clouds,dailyrainin,SoftwareType,DateUTC
2014-11-25 00:02:00,25.0,19.0,30.18,West,270,6.0,-999.0,79,-99.99,,,-99.99,,2014-11-25 06:02:00,
2014-11-25 00:52:00,27.0,19.0,30.18,WNW,290,7.0,-999.0,73,-99.99,,,-99.99,,2014-11-25 06:52:00,
2014-11-25 01:02:00,27.0,19.0,30.18,WNW,290,7.0,-999.0,73,-99.99,,,-99.99,,2014-11-25 07:02:00,
2014-11-25 01:52:00,25.0,19.0,30.18,WNW,290,7.0,-999.0,79,-99.99,,,-99.99,,2014-11-25 07:52:00,
2014-11-25 02:02:00,25.0,19.0,30.18,WNW,290,7.0,-999.0,79,-99.99,,,-99.99,,2014-11-25 08:02:00,
2014-11-25 02:52:00,25.0,19.0,30.20,WNW,290,8.0,-999.0,79,-99.99,,,-99.99,,2014-11-25 08:52:00,
2014-11-25 03:02:00,25.0,19.0,30.20,WNW,290,8.0,-999.0,79,-99.99,,,-99.99,,2014-11-25 09:02:00,
2014-11-25 03:54:00,23.0,19.0,30.19,West,270,3.0,-999.0,85,-99.99,,,-99.99,,2014-11-25 09:54:00,
2014-11-25 04:03:00,23.0,19.0,30.19,West,270,3.0,-999.0,85,-99.99,,,-99.99,,2014-11-25 10:03:00,
2014-11-25 04:52:00,23.0,21.0,30.18,West,260,5.0,-999.0,92,-99.99,,,-99.99,,2014-11-25 10:52:00,
2014-11-25 05:03:00,23.0,21.0,30.18,West,260,5.0,-999.0,92,-99.99,,,-99.99,,2014-11-25 11:03:00,
2014-11-25 05:52:00,25.0,23.0,30.17,WSW,240,3.0,-999.0,92,-99.99,,,-99.99,,2014-11-25 11:52:00,
2014-11-25 06:03:00,25.0,23.0,30.17,WSW,240,3.0,-999.0,92,-99.99,,,-99.99,,2014-11-25 12:03:00,
2014-11-25 06:52:00,23.0,21.0,30.17,WSW,250,5.0,-999.0,92,-99.99,,,-99.99,,2014-11-25 12:52:00,
2014-11-25 07:02:00,23.0,21.0,30.17,WSW,250,5.0,-999.0,92,-99.99,,,-99.99,,2014-11-25 13:02:00,
2014-11-25 07:22:00,21.0,19.0,30.16,WSW,250,5.0,-999.0,92,-99.99,,,-99.99,,2014-11-25 13:22:00,
2014-11-25 07:52:00,23.0,19.0,30.16,West,260,3.0,-999.0,85,-99.99,,,-99.99,,2014-11-25 13:52:00,
2014-11-25 08:02:00,23.0,19.0,30.16,West,260,3.0,-999.0,85,-99.99,,,-99.99,,2014-11-25 14:02:00,
2014-11-25 13:52:00,52.0,19.0,29.98,SSW,200,16.0,22.0,27,-99.99,,,-99.99,,2014-11-25 19:52:00,
2014-11-25 14:02:00,52.0,19.0,29.98,SSW,200,16.0,22.0,27,-99.99,,,-99.99,,2014-11-25 20:02:00,
2014-11-25 14:53:00,52.0,18.0,29.94,SSW,200,16.0,22.0,25,-99.99,,,-99.99,,2014-11-25 20:53:00,
2014-11-25 15:03:00,52.0,18.0,29.94,SSW,200,16.0,22.0,25,-99.99,,,-99.99,,2014-11-25 21:03:00,
2014-11-25 15:54:00,52.0,18.0,29.91,South,190,14.0,18.0,25,-99.99,,,-99.99,,2014-11-25 21:54:00,
2014-11-25 16:04:00,52.0,18.0,29.91,South,190,14.0,18.0,25,-99.99,,,-99.99,,2014-11-25 22:04:00,
2014-11-25 16:53:00,52.0,16.0,29.89,SSW,200,10.0,16.0,23,-99.99,,,-99.99,,2014-11-25 22:53:00,
2014-11-25 17:03:00,52.0,16.0,29.89,SSW,200,10.0,16.0,23,-99.99,,,-99.99,,2014-11-25 23:03:00,
2014-11-25 17:53:00,50.0,18.0,29.89,SW,220,3.0,-999.0,27,-99.99,,,-99.99,,2014-11-25 23:53:00,
2014-11-25 18:02:00,50.0,18.0,29.89,SW,220,3.0,-999.0,27,-99.99,,,-99.99,,2014-11-26 00:02:00,
2014-11-25 18:52:00,46.0,18.0,29.87,South,190,3.0,-999.0,31,-99.99,,,-99.99,,2014-11-26 00:52:00,
2014-11-25 19:02:00,46.0,18.0,29.87,South,190,3.0,-999.0,31,-99.99,,,-99.99,,2014-11-26 01:02:00,